Nova Scotia Challenge - Hand inventory

Station: Inventory - T Race

Distance: 10 Miles

Release: 13-Jun-2022 15:00

Weather Release:    Arrival:

Wind at Release:     Wind at Arrival:

Temp at Release: °    Temp at Arrival: °

Lofts: 48

Birds: 352

Clocked: 312

Good Luck to Everyone!
Drops Pos Breeder Pigeon Name Color Sex Ent Arrival Speed To Win Elg Pd
1 Irishsyndicatelofts - AZ 7310-AU22-ISD BC H 1 2022-06-13 16:51:47.00 60.319 00:00:00 Yes
2 Blum Loft - PE 22402-CU22-NOVA BSP H 1 2022-06-13 16:52:49.00 60.106 00:01:02 Yes
3 Gregoruk/Horner - ON 0573-CU22-TBAY CKWF H 1 2022-06-13 16:53:30.00 59.966 00:01:43 Yes
4 Derick Schleifer - ON 0288-CU22-PKC CH H 1 2022-06-13 16:54:23.00 59.786 00:02:36 Yes
5 Los Banditos - CA 2489-AU22-LB BB H 1 2022-06-13 16:55:03.00 59.651 00:03:16 Yes
6 Pigeonempire.Com Guido Madrusan - ON 7712-CU22-CRPU BB H 1 2022-06-13 16:55:51.00 59.490 00:04:04 Yes
7 Evolution One Loft - UT 0130-AU22-ARPU BB C 1 2022-06-13 16:56:17.00 59.403 00:04:30 Yes
8 Family Loft - IN 11232-CU22-CRPU BC H 1 2022-06-13 16:57:51.00 59.090 00:06:04 Yes
9 Lonestar Loft - TX 0064-AU22-ARPU BB H 1 2022-06-13 17:01:11.00 58.436 00:09:24 Yes
10 Gregoruk/Horner - ON 0584-CU22-TBAY BB H 2 2022-06-13 17:03:09.00 58.057 00:11:22 Yes
11 Irishsyndicatelofts - AZ 7308-AU22-ISD BB H 2 2022-06-13 17:03:51.00 57.923 00:12:04 Yes
12 Tx Lin Loft - TX 20210-AU22-AA BB H 1 2022-06-13 17:04:38.00 57.774 00:12:51 Yes
13 O And L De Vries - ON 4684-CU22-OL BB H 1 2022-06-13 17:05:31.00 57.607 00:13:44 Yes
14 Lin Family Loft - GA 86203-AU22-ARPU SLT H 1 2022-06-13 17:05:59.00 57.519 00:14:12 Yes
15 Empire Farm - ON 4701-IF22-IF BP H 1 2022-06-13 17:06:32.00 57.416 00:14:45 Yes
16 Ivan Dave Syndicate - NS 5003-CU22-MP BB H 1 2022-06-13 17:07:15.00 57.282 00:15:28 Yes
17 FDC Loft - ON 0045-CU22-FDC BK C 1 2022-06-13 17:07:31.00 57.233 00:15:44 Yes
18 Fernando Dias - ON 0639-CU22-CRPU BB H 1 2022-06-13 17:09:06.00 56.940 00:17:19 Yes
19 Cambie Village Loft - BC 4263-CU22-CRPU BB H 1 2022-06-13 17:10:26.00 56.695 00:18:39 Yes
20 Pigeonempire.Com Guido Madrusan - ON 7721-CU22-CRPU BBWF C 2 2022-06-13 17:10:52.00 56.616 00:19:05 Yes
21 O And L De Vries - ON 4682-CU22-OL BB H 2 2022-06-13 17:15:16.00 55.826 00:23:29 Yes
22 Cambie Village Loft - BC 4254-CU22-CRPU BB C 2 2022-06-13 17:23:19.00 54.436 00:31:32 Yes
23 Rick Fyfe - ON 19899-CU22-CRPU BC C 1 2022-06-13 17:23:42.00 54.371 00:31:55 Yes
24 Ian Sibbald - ON 8877-CU22-CRPU BB H 1 2022-06-13 17:24:11.00 54.290 00:32:24 Yes
25 Los Banditos - CA 2477-AU22-LB BB C 2 2022-06-13 17:24:51.00 54.179 00:33:04 Yes
26 Chinese Curry - ON 2413-CU22-ASI RED H 1 2022-06-13 17:25:20.00 54.098 00:33:33 Yes
27 Chinese Curry - ON 2460-CU22-ASI BCWF C 2 2022-06-13 17:25:56.00 53.999 00:34:09 Yes
28 Derick Schleifer - ON 0287-CU22-PKC CH H 2 2022-06-13 17:26:45.00 53.864 00:34:58 Yes
29 Irishsyndicatelofts - AZ 7316-AU22-ISD BB H 3 2022-06-13 17:27:13.00 53.787 00:35:26 Yes
30 Bluesky Loft - ON 1621-CU22-YRI BC H 1 2022-06-13 17:27:44.00 53.702 00:35:57 Yes
31 Ian Sibbald - ON 8933-CU22-CRPU DCWF H 2 2022-06-13 17:33:27.00 52.782 00:41:40 Yes
32 Dogwood Lofts - BC 1211-CU22-MPB BB H 1 2022-06-13 17:33:51.00 52.718 00:42:04 Yes
33 Vaccaro & Nelson - ON 1036-CU22-VHL BBWF H 1 2022-06-13 17:34:16.00 52.653 00:42:29 Yes
34 Linda & Rick - ON 40644-AU22-AA BB C 1 2022-06-13 17:47:11.00 50.694 00:55:24 Yes
35 Blum Loft - PE 22414-CU22-NOVA RCH H 2 2022-06-13 17:47:35.00 50.635 00:55:48 Yes
36 Irishsyndicatelofts - AZ 7307-AU22-ISD BB H 4 2022-06-13 17:48:04.00 50.565 00:56:17 Yes
37 Vantroba/Eloranta/Vreys - ON 0734-CU22-CRPU BBSP H 1 2022-06-13 17:48:55.00 50.442 00:57:08 Yes
38 Cambie Village Loft - BC 4274-CU22-CRPU BB H 3 2022-06-13 17:50:29.00 50.216 00:58:42 Yes
39 Vantroba/Eloranta/Vreys - ON 0707-CU22-CRPU BBWF H 2 2022-06-13 17:51:22.00 50.090 00:59:35 Yes
40 Bluesky Loft - ON 1618-CU22-YRI BC C 2 2022-06-13 17:51:59.00 50.002 01:00:12 Yes
41 Los Banditos - CA 2478-AU22-LB BB H 3 2022-06-13 17:53:05.00 49.847 01:01:18 Yes
42 Dogwood Lofts - BC 1208-CU22-MPB BK H 2 2022-06-13 17:55:24.00 49.522 01:03:37 Yes
43 Family Loft - IN 11191-CU22-CRPU BC C 2 2022-06-13 17:56:02.00 49.434 01:04:15 Yes
44 Chinese Curry - ON 2459-CU22-ASI BB C 3 2022-06-13 17:56:31.00 49.367 01:04:44 Yes
45 Blum Loft - PE 22417-CU22-NOVA DCWF C 3 2022-06-13 17:57:31.00 49.228 01:05:44 Yes
46 Family Loft - IN 11231-CU22-CRPU BC H 3 2022-06-13 17:57:55.00 49.173 01:06:08 Yes
47 Rick Fyfe - ON 18595-CU22-CRPU BC H 2 2022-06-13 17:58:34.00 49.084 01:06:47 Yes
48 Chinese Curry - ON 2461-CU22-ASI BC H 4 2022-06-13 17:59:23.00 48.973 01:07:36 Yes
49 Derick Schleifer - ON 0292-CU22-PKC CH H 3 2022-06-13 17:59:51.00 48.909 01:08:04 Yes
50 Marie Schleifer - ON 0293-CU22-PKC CH H 1 2022-06-13 18:00:19.00 48.846 01:08:32 Yes
51 Classic Flight - ON 4702-IF22-IF BB H 1 2022-06-13 18:02:06.00 48.605 01:10:19 Yes
52 Franco Classic Loft - CA 10062-AU22-JEDD BB C 1 2022-06-13 18:05:29.00 48.155 01:13:42 Yes
53 Prevalent Lofts - BC 0207-CU22-PLB BB H 1 2022-06-13 18:05:58.00 48.092 01:14:11 Yes
54 Vantroba/Eloranta/Vreys - ON 0701-CU22-CRPU BB H 3 2022-06-13 18:06:10.00 48.066 01:14:23 Yes
55 Cantoloft - ON 9805-CU22-CRPU BC H 1 2022-06-13 18:07:11.00 47.932 01:15:24 Yes
56 Family Loft - IN 11192-CU22-CRPU BC H 4 2022-06-13 18:07:51.00 47.846 01:16:04 Yes
57 Classic Flight - ON 7907-CU22-CRPU RAD H 2 2022-06-13 18:08:30.00 47.761 01:16:43 Yes
58 Furlano & Rotiroti - ON 11136-CU22-CRPU BB C 1 2022-06-13 18:09:07.00 47.681 01:17:20 Yes
59 Lin Family Loft - GA 86206-AU22-ARPU BCH H 2 2022-06-13 18:09:36.00 47.619 01:17:49 Yes
60 Prevalent Lofts - BC 5013-CU22-PLB BB H 2 2022-06-13 18:10:17.00 47.531 01:18:30 Yes
61 Fernando Dias - ON 0637-CU22-CRPU BC H 2 2022-06-13 18:10:36.00 47.491 01:18:49 Yes
62 Da-Dong - WI 1640-AU22-RAC BB H 1 2022-06-13 18:10:59.00 47.441 01:19:12 Yes
63 Linda & Rick - ON 19902-CU22-CRPU RED H 2 2022-06-13 18:11:23.00 47.390 01:19:36 Yes
64 Dogwood Lofts - BC 1207-CU22-MPB BB C 3 2022-06-13 18:12:01.00 47.310 01:20:14 Yes
65 Cruz Family Loft - ON 7987-CU22-CRPU SLK C 1 2022-06-13 18:12:23.00 47.263 01:20:36 Yes
66 Lonestar Loft - TX 0068-AU22-ARPU BB H 2 2022-06-13 18:13:23.00 47.137 01:21:36 Yes
67 Dogwood Lofts - BC 5025-CU22-MPB BB C 4 2022-06-13 18:13:49.00 47.082 01:22:02 Yes
68 Fernando Dias - ON 0638-CU22-CRPU RAD H 3 2022-06-13 18:31:21.00 44.973 01:39:34 Yes
69 Cruz Family Loft - ON 0063-CU22-NG BB H 2 2022-06-13 18:33:35.00 44.717 01:41:48 Yes
70 Pigeonempire.Com Guido Madrusan - ON 7707-CU22-CRPU BB C 3 2022-06-13 18:34:06.00 44.659 01:42:19 Yes
71 Empire Farm - ON 4727-IF22-IF BB H 2 2022-06-13 18:34:51.00 44.574 01:43:04 Yes
72 Da-Dong - WI 1650-AU22-RAC WF H 2 2022-06-13 18:35:11.00 44.536 01:43:24 Yes
73 Cantoloft - ON 9802-CU22-CRPU BBWF C 2 2022-06-13 18:36:06.00 44.433 01:44:19 Yes
74 Tx Lin Loft - TX 20213-AU22-AA BC C 2 2022-06-13 18:36:19.00 44.409 01:44:32 Yes
75 Pigeonempire.Com Guido Madrusan - ON 7720-CU22-CRPU CHO C 4 2022-06-13 18:37:16.00 44.303 01:45:29 Yes
76 Los Banditos - CA 2469-AU22-LB BB C 4 2022-06-13 18:37:39.00 44.260 01:45:52 Yes
77 Dan & Greg Coury - AZ 0024-AU22-AONE BB H 1 2022-06-13 18:38:15.00 44.193 01:46:28 Yes
78 Southshore Lofts - NS 22019-CU22-CRPU Gladiator Express BC C 1 2022-06-13 18:38:50.00 44.129 01:47:03 Yes
79 Cantoloft - ON 9811-CU22-CRPU BB H 3 2022-06-13 18:39:37.00 44.042 01:47:50 Yes
80 Derick Schleifer - ON 0213-CU22-PKC CH H 4 2022-06-13 18:40:15.00 43.973 01:48:28 Yes
81 Bluesky Loft - ON 1625-CU22-YRI BB H 3 2022-06-13 18:40:52.00 43.905 01:49:05 Yes
82 FDC Loft - ON 0648-CU22-YRIM BB H 2 2022-06-13 18:41:29.00 43.837 01:49:42 Yes
83 Empire Farm - ON 4723-IF22-IF BC H 3 2022-06-13 18:42:13.00 43.758 01:50:26 Yes
84 Cruz Family Loft - ON 7990-CU22-CRPU SLK C 3 2022-06-13 18:42:45.00 43.700 01:50:58 Yes
85 Hollywood Honey - CA 22049-CU22-NOVA BB H 1 2022-06-13 18:51:01.00 42.821 01:59:14 Yes
86 Da-Dong - WI 1639-AU22-RAC BB H 3 2022-06-13 19:05:47.00 41.336 02:14:00 Yes
87 Irishsyndicatelofts - AZ 7313-AU22-ISD BB H 5 2022-06-13 19:06:30.00 41.266 02:14:43 Yes
88 Los Banditos - CA 2492-AU22-LB RED C 5 2022-06-13 19:07:18.00 41.189 02:15:31 Yes
89 Pigeonempire.Com Guido Madrusan - ON 7729-CU22-CRPU BB H 5 2022-06-13 19:07:45.00 41.146 02:15:58 Yes
90 Unassigned-Oneloft - OR 22416-CU22-NOVA RC C 1 2022-06-13 19:08:43.00 41.053 02:16:56 Yes
91 FDC Loft - ON 0051-CU22-FDC BCWF H 3 2022-06-13 19:08:44.00 41.051 02:16:57 Yes
92 Pigeonempire.Com Guido Madrusan - ON 7716-CU22-CRPU BB C 6 2022-06-13 19:10:23.00 40.894 02:18:36 Yes
93 Gregoruk/Horner - ON 0175-CU22-TBAY DCWF C 3 2022-06-13 19:10:55.00 40.843 02:19:08 Yes
94 Tx Lin Loft - TX 0198-AU22-TL BC H 3 2022-06-13 19:11:31.00 40.786 02:19:44 Yes
95 Irishsyndicatelofts - AZ 7315-AU22-ISD BB H 6 2022-06-13 19:12:01.00 40.739 02:20:14 Yes
96 Bill Wieland Loft - BC 5304-CU22-MPB BB C 1 2022-06-13 19:12:42.00 40.675 02:20:55 Yes
97 FDC Loft - ON 0032-CU22-FDC WFPD H 4 2022-06-13 19:13:01.00 40.645 02:21:14 Yes
98 Evolution One Loft - UT 0518-AU22-ARPU BB C 2 2022-06-13 19:14:13.00 40.533 02:22:26 Yes
99 Calgary Boys - AB 63465-AU22-ARPU Classy BB H 1 2022-06-13 19:14:29.00 40.508 02:22:42 Yes
100 Bill Wieland Loft - BC 5017-CU22-MPB BB C 2 2022-06-13 19:15:03.00 40.455 02:23:16 Yes

There are 312 bird records

Note: These Race Results are unofficial and subject to change until verified by the Race Committee and declared final.

 


windy
Click for Forecast for B3Z 1A7 from weatherUSA